Portada
METAR-TAF:

METAR-TAF

Aeropuertos :

Aeropuerto Alfonso López Pumarejo

Valledupar, Colombia

latitud: 10-26N, longitud: 073-15W, altitud: 138 m

Observación

El informe se hizo hace 1 hora y 10 minutos, a las 23:00 UTC
Viento 10 kt del este-noreste
Temperatura 27°C
Humedad 74%
Presión 1011 hPa
Visibilidad 10 km o más
Nubes dispersas a una altura de 2000 ft
Nubes dispersas a una altura de 7000 ft

METAR: SKVP 242300Z 07010KT 9999 SCT020 SCT070 27/22 A2985

Hora: 19:10 (00:10 UTC)


TAF: falta

Observaciones y pronósticos meteorológicos de más de 4000 aeropuertos (mensajes METAR y TAF).

Los puntos amarillos y rojos representan las estaciones disponibles.

Ponga el ratón en el punto deseado para ver el nombre de la estación.

Haga clic para ver las observaciones y los pronósticos meteorológicos.

Para cambiar el mapa : haga clic en los botones verdes con una cruz de color negro para hacer un zoom, en el botón verde con un guión para alejar o en las flechas verdes para mapas adyacentes.


METAR-TAF: